Bingham Lake, MN

1:53 AM CST on February 23, 2017 (GMT -0600)
Windom Municipal

Weather History for KMWM - April, 2013

Change the Weather History Date:

Sunday, April 14, 2013

  Actual Average Record
Temperature  
Mean Temperature 34 °F -  
Max Temperature 37 °F 54 °F 89 °F (1954)
Min Temperature 30 °F 33 °F 17 °F (1950)
Degree Days  
Heating Degree Days 32    
Moisture  
Dew Point 32 °F    
Average Humidity 93    
Maximum Humidity 100    
Minimum Humidity 81    
Precipitation  
Precipitation 0.03 in - - ()
Sea Level Pressure  
Sea Level Pressure 29.55 in    
Wind  
Wind Speed 16 mph (East)    
Max Wind Speed 23 mph    
Max Gust Speed 31 mph    
Visibility 7 miles    
Events Fog , Rain , Snow    
Averages and records for this station are not official NWS values.
T = Trace of Precipitation, MM = Missing Value Source: NWS Daily Summary

Daily Weather History Graph

Daily Weather History Graph

Search for Another Location

Airport or City:

Trip Planner

Search our weather history database for the weather conditions in past years. The results will help you decide how hot, cold, wet, or windy it might be!

Date:

Astronomy

Apr. 14, 2013 Rise Set
Actual Time 6:38 AM CDT 8:03 PM CDT
Civil Twilight 6:08 AM CDT 8:33 PM CDT
Nautical Twilight 5:32 AM CDT 9:09 PM CDT
Astronomical Twilight 4:54 AM CDT 9:48 PM CDT
Moon 9:10 AM CDT (4/14) No Moon Set
Length of Visible Light 14h 24m
Length of Day
13h 24m
Waxing Crescent, 17% of the Moon is Illuminated
Apr 14
Waxing Crescent
Apr 18
First Quarter
Apr 25
Full
May 2
Last Quarter
May 9
New

Hourly Weather History & Observations

Time (CDT) Temp. Windchill Dew Point Humidity Pressure Visibility Wind Dir Wind Speed Gust Speed Precip Events Conditions
12:13 AM 30.2 °F 20.8 °F 28.4 °F 93% 29.84 in 10.0 mi ENE 11.5 mph - N/A   Overcast
12:32 AM 30.2 °F 19.8 °F 28.4 °F 93% 29.83 in 3.0 mi ENE 13.8 mph - N/A Snow Light Snow
12:52 AM 30.2 °F 18.9 °F 28.4 °F 93% 29.82 in 3.0 mi ENE 16.1 mph - N/A Snow Light Snow
1:13 AM 30.2 °F 18.1 °F 28.4 °F 93% 29.80 in 7.0 mi ENE 18.4 mph - N/A Snow Light Snow
1:32 AM 30.2 °F 17.8 °F 28.4 °F 93% 29.78 in 10.0 mi ENE 19.6 mph 26.5 mph N/A   Overcast
1:52 AM 30.2 °F 17.4 °F 28.4 °F 93% 29.78 in 10.0 mi ENE 20.7 mph - N/A   Overcast
2:13 AM 30.2 °F 17.8 °F 28.4 °F 93% 29.78 in 10.0 mi East 19.6 mph - N/A   Overcast
2:32 AM 30.2 °F 18.9 °F 28.4 °F 93% 29.78 in 10.0 mi East 16.1 mph - N/A   Overcast
2:52 AM 32.0 °F 20.5 °F 28.4 °F 87% 29.77 in 10.0 mi East 18.4 mph - N/A   Overcast
3:13 AM 32.0 °F 20.5 °F 28.4 °F 87% 29.77 in 10.0 mi East 18.4 mph 23.0 mph N/A   Overcast
3:32 AM 32.0 °F 21.2 °F 30.2 °F 93% 29.75 in 7.0 mi East 16.1 mph - 0.01 in   Overcast
3:52 AM 32.0 °F 21.2 °F 30.2 °F 93% 29.75 in 5.0 mi East 16.1 mph - 0.02 in   Overcast
4:13 AM 32.0 °F 22.5 °F 30.2 °F 93% 29.73 in 10.0 mi East 12.7 mph - 0.01 in   Overcast
4:32 AM 32.0 °F 21.2 °F 30.2 °F 93% 29.72 in 10.0 mi East 16.1 mph - 0.01 in   Overcast
4:52 AM 32.0 °F 21.6 °F 30.2 °F 93% 29.71 in 10.0 mi East 15.0 mph - 0.01 in   Overcast
5:12 AM 32.0 °F 21.6 °F 30.2 °F 93% 29.68 in 10.0 mi East 15.0 mph - N/A   Overcast
5:32 AM 32.0 °F 21.6 °F 30.2 °F 93% 29.68 in 10.0 mi East 15.0 mph 18.4 mph N/A   Overcast
5:53 AM 32.0 °F 21.2 °F 30.2 °F 93% 29.66 in 10.0 mi East 16.1 mph - N/A   Overcast
6:12 AM 32.0 °F 20.8 °F 30.2 °F 93% 29.66 in 10.0 mi East 17.3 mph 21.9 mph N/A   Overcast
6:32 AM 32.0 °F 20.8 °F 30.2 °F 93% 29.65 in 10.0 mi East 17.3 mph - N/A   Overcast
6:53 AM 32.0 °F 20.8 °F 30.2 °F 93% 29.64 in 10.0 mi East 17.3 mph - N/A   Overcast
7:12 AM 32.0 °F 20.8 °F 30.2 °F 93% 29.63 in 10.0 mi East 17.3 mph 24.2 mph N/A   Overcast
7:32 AM 32.0 °F 20.1 °F 30.2 °F 93% 29.62 in 10.0 mi East 19.6 mph 26.5 mph N/A   Overcast
7:52 AM 32.0 °F 20.5 °F 30.2 °F 93% 29.61 in 10.0 mi East 18.4 mph 24.2 mph N/A   Overcast
8:12 AM 32.0 °F 19.8 °F 30.2 °F 93% 29.60 in 10.0 mi East 20.7 mph 25.3 mph N/A   Overcast
8:33 AM 32.0 °F 19.5 °F 30.2 °F 93% 29.59 in 7.0 mi East 21.9 mph 25.3 mph N/A   Overcast
8:52 AM 32.0 °F 20.1 °F 30.2 °F 93% 29.57 in 4.0 mi East 19.6 mph 25.3 mph N/A   Overcast
9:12 AM 32.0 °F 20.1 °F 30.2 °F 93% 29.55 in 2.5 mi East 19.6 mph - N/A   Overcast
9:33 AM 32.0 °F 20.1 °F 32.0 °F 100% 29.53 in 4.0 mi East 19.6 mph 24.2 mph N/A   Overcast
9:52 AM 33.8 °F 23.5 °F 32.0 °F 93% 29.53 in 5.0 mi East 16.1 mph - N/A   Overcast
10:12 AM 33.8 °F 24.3 °F 32.0 °F 93% 29.54 in 10.0 mi East 13.8 mph 21.9 mph N/A   Overcast
10:33 AM 33.8 °F 23.9 °F 33.8 °F 100% 29.52 in 10.0 mi East 15.0 mph 20.7 mph N/A Snow Light Snow
10:52 AM 33.8 °F 23.9 °F 33.8 °F 100% 29.52 in 7.0 mi East 15.0 mph 20.7 mph N/A Snow Light Snow
11:12 AM 33.8 °F 21.9 °F 33.8 °F 100% 29.52 in 5.0 mi East 21.9 mph 31.1 mph N/A Snow Light Snow
11:33 AM 33.8 °F 21.6 °F 33.8 °F 100% 29.50 in 10.0 mi East 23.0 mph 29.9 mph N/A Snow Light Snow
11:52 AM 33.8 °F 22.8 °F 33.8 °F 100% 29.49 in 10.0 mi East 18.4 mph 29.9 mph N/A   Overcast
12:12 PM 35.6 °F 25.2 °F 33.8 °F 93% 29.49 in 10.0 mi East 18.4 mph 26.5 mph N/A   Overcast
12:33 PM 35.6 °F 24.8 °F 33.8 °F 93% 29.49 in 10.0 mi East 19.6 mph 26.5 mph N/A   Overcast
12:52 PM 35.6 °F 25.2 °F 33.8 °F 93% 29.47 in 7.0 mi East 18.4 mph 21.9 mph N/A   Overcast
1:12 PM 35.6 °F 25.9 °F 33.8 °F 93% 29.46 in 4.0 mi East 16.1 mph 21.9 mph N/A   Overcast
1:32 PM 35.6 °F 25.9 °F 35.6 °F 100% 29.45 in 4.0 mi East 16.1 mph 20.7 mph N/A   Light Drizzle
1:52 PM 35.6 °F 25.5 °F 35.6 °F 100% 29.43 in 5.0 mi East 17.3 mph 23.0 mph N/A   Overcast
2:12 PM 35.6 °F 25.9 °F 35.6 °F 100% 29.42 in 5.0 mi East 16.1 mph - N/A   Overcast
2:32 PM 35.6 °F 25.9 °F 35.6 °F 100% 29.42 in 5.0 mi East 16.1 mph 20.7 mph N/A   Overcast
2:52 PM 35.6 °F 25.5 °F 35.6 °F 100% 29.40 in 2.5 mi East 17.3 mph - N/A   Overcast
3:12 PM 35.6 °F 25.2 °F 35.6 °F 100% 29.37 in 1.8 mi East 18.4 mph 23.0 mph N/A Rain Light Rain
3:32 PM 35.6 °F 25.9 °F 35.6 °F 100% 29.38 in 1.8 mi East 16.1 mph 20.7 mph N/A Rain Light Rain
3:52 PM 35.6 °F 25.9 °F 35.6 °F 100% 29.38 in 1.2 mi East 16.1 mph 21.9 mph N/A   Overcast
4:12 PM 35.6 °F 25.2 °F 35.6 °F 100% 29.37 in 1.0 mi East 18.4 mph - N/A   Overcast
4:32 PM 35.6 °F 27.5 °F 35.6 °F 100% 29.36 in 0.8 mi East 11.5 mph - N/A   Overcast
4:52 PM 35.6 °F 25.5 °F 35.6 °F 100% 29.35 in 0.2 mi East 17.3 mph 21.9 mph N/A Fog Fog
5:12 PM 35.6 °F 24.5 °F 35.6 °F 100% 29.33 in 0.2 mi ENE 20.7 mph - N/A Fog Fog
5:32 PM 35.6 °F 28.0 °F 35.6 °F 100% 29.36 in 0.2 mi East 10.4 mph - N/A Fog Fog
5:52 PM 35.6 °F - 35.6 °F 100% 29.37 in 0.2 mi Calm Calm - N/A Fog Fog
6:12 PM 37.4 °F - 37.4 °F 100% 29.40 in 0.2 mi Calm Calm - N/A   Light Drizzle
6:32 PM 37.4 °F - 37.4 °F 100% 29.41 in 0.2 mi Calm Calm - N/A   Light Drizzle
6:53 PM 37.4 °F 27.5 °F 37.4 °F 100% 29.43 in 2.0 mi SW 18.4 mph 26.5 mph N/A   Overcast
7:12 PM 37.4 °F 27.2 °F 37.4 °F 100% 29.44 in 10.0 mi WSW 19.6 mph 28.8 mph N/A   Mostly Cloudy
7:32 PM 37.4 °F 27.5 °F 35.6 °F 93% 29.45 in 10.0 mi WSW 18.4 mph 24.2 mph N/A   Scattered Clouds
7:53 PM 37.4 °F 27.8 °F 33.8 °F 87% 29.47 in 10.0 mi WSW 17.3 mph - N/A   Clear
8:12 PM 37.4 °F 28.5 °F 33.8 °F 87% 29.47 in 10.0 mi WSW 15.0 mph - N/A   Clear
8:32 PM 37.4 °F 29.3 °F 33.8 °F 87% 29.48 in 10.0 mi SW 12.7 mph - N/A   Clear
8:53 PM 37.4 °F 27.8 °F 33.8 °F 87% 29.48 in 10.0 mi SW 17.3 mph 21.9 mph N/A   Clear
9:12 PM 37.4 °F 27.5 °F 32.0 °F 81% 29.48 in 10.0 mi SW 18.4 mph 25.3 mph N/A   Clear
9:32 PM 35.6 °F 24.8 °F 32.0 °F 87% 29.49 in 10.0 mi SW 19.6 mph 25.3 mph N/A   Clear
9:52 PM 35.6 °F 24.5 °F 32.0 °F 87% 29.50 in 10.0 mi SW 20.7 mph 26.5 mph N/A   Clear
10:12 PM 35.6 °F 24.5 °F 30.2 °F 81% 29.50 in 10.0 mi SW 20.7 mph 26.5 mph N/A   Clear
10:33 PM 35.6 °F 25.2 °F 30.2 °F 81% 29.50 in 10.0 mi SW 18.4 mph 24.2 mph N/A   Clear
10:52 PM 35.6 °F 24.8 °F 30.2 °F 81% 29.50 in 10.0 mi SW 19.6 mph 26.5 mph N/A   Clear
11:12 PM 35.6 °F 24.8 °F 30.2 °F 81% 29.50 in 10.0 mi SW 19.6 mph 27.6 mph N/A   Clear
11:33 PM 35.6 °F 24.8 °F 30.2 °F 81% 29.50 in 10.0 mi SSW 19.6 mph 23.0 mph N/A   Clear
11:52 PM 35.6 °F 24.8 °F 30.2 °F 81% 29.50 in 10.0 mi SSW 19.6 mph 25.3 mph N/A   Clear